Location: De Greiden
(52.9496°N, 5.9137°E)
Time: 23:53:44
(UTC+00:00)

Aureole 3 Rocket - Pass Details

Date: 24 January 2021
Orbit: 398 x 1740 km, 82.5° (Epoch: 01 March)

Event Time Altitude Azimuth Distance (km) Brightness Sun altitude
Rises 17:37:04 0° 356° (N) 2,335 5.9 -13.4°
Reaches altitude 10° 17:39:10 10° 8° (N) 1,465 4.8 -13.7°
Maximum altitude 17:41:57 31° 73° (ENE) 762 3.0 -14.1°
Drops below altitude 10° 17:44:59 10° 139° (SE) 1,606 4.9 -14.6°
Sets 17:47:23 0° 149° (SSE) 2,608 6.1 -14.9°
